FENGYUN 3F

Last updated on Tue Dec 09 2025 00:02:22 GMT+0000 (Coordinated Universal Time)

1 57490U 23111A 25342.64476408 .00000205 00000+0 11702-3 0 9998 2 57490 98.7090 51.0042 0000663 94.2688 265.8564 14.19892130121822
UTC large
Height (km)
Speed (km/s)
/
Latitude / Longitude
Inclination (degrees)
Orbital Period (minutes)
Azimuth
Elevation
Range (km)
Doppler Factor

Next 0 passes for location: London (51.5072 / 0.1276)

Sorry there are no passes over London.